Zurück zum Katalog

HULIANWANG DIGUI-170

AktivWissenschaftLEO
NORAD 69573·PAYLOAD·🇨🇳 China

Gestartet Jun 17, 2026 von Wenchang Space Launch Site

Loading…

Nächste Überflüge (nächste 24 Stunden)

TLE

AktuellSource: Space-Track

Epoche: Sep 14, 2026, 09:27 UTC

1 69573U 26137B   26257.39399709 -.00000091  00000-0  71445-4 0  9996
2 69573  50.0004 276.1238 0000180 329.2466  30.8396 13.29327878 12205

Verfolge HULIANWANG DIGUI-170 in Echtzeit mit AllMySat

Download on the App Store